Terug naar catalogus

METEOR 2-16

ActiefWeerPO
NORAD 18312·PAYLOAD·🇷🇺 Russia

Gelanceerd Aug 18, 1987 vanaf Plesetsk Cosmodrome

Loading…

Volgende Passages (komende 24 uur)

TLE

VersSource: Space-Track

Epoch: Sep 14, 2026, 06:53 UTC

1 18312U 87068A   26257.28747988  .00000017  00000-0  14708-5 0  9992
2 18312  82.5553 223.5824 0013252 144.6229 215.5814 13.84953359974648

Volg METEOR 2-16 in realtime met AllMySat

Download on the App Store